Location: Cicognara
(44.9500°N, 10.4667°E)
Time: 14:18:45
(UTC+00:00)

USA 81 - Pass Details

Date: 20 June 2021
Orbit: 784 x 789 km, 85.0° (Epoch: 12 June)

Event Time Altitude Azimuth Distance (km) Brightness Sun altitude
Rises 19:57:26 0° 353° (N) 3,286 8.2 -7.5°
Reaches altitude 10° 19:59:48 10° 353° (N) 2,353 7.4 -7.8°
Maximum altitude 20:05:05 82° 268° (W) 798 4.2 -8.5°
Drops below altitude 10° 20:10:20 10° 180° (S) 2,336 6.1 -9.1°
Enters shadow 20:12:03 - 180° (S) 3,014 6.6 -9.3°
